[[{"header":{"parameterUnit":"m.s-1","parameterCategory":1,"la1":30.2991,"la2":30.254,"lo1":-89.0895,"lo2":-89.0444,"dy":0.0017,"dx":0.0017,"nx":28,"ny":28,"refTime":"2023-10-24T09:00:00:Z","depth":0,"parameterNumber":2,"parameterNumberName":"U-component_of_WINDS"},"data":[0,0,0,0,0,0,0,0,0,0,0,0,0,0,0,0,0,0,0,0,0,0,0,0,0,0,0,0,0,0,0,0,0,0,0,0,0,0,0,0,0,0,0,0,0,0,0,0,0,0,0,0,0,0,0,0,0,0,-6.4084,-6.4086,0,-6.4239,-6.4241,-6.4243,-6.418,-6.4176,-6.4172,-6.4169,-6.4326,-6.4333,-6.4341,0,0,0,0,0,0,0,0,0,0,0,0,0,-6.3733,-6.3739,-6.4084,-6.4086,-6.4088,-6.4239,-6.4241,-6.4243,-6.418,-6.4176,-6.4172,-6.4167,-6.4323,-6.4332,-6.4341,0,0,0,0,0,0,0,0,0,0,0,0,0,-6.3886,-6.3742,-6.4084,-6.4075,-6.4075,-6.4239,-6.4241,-6.4244,-6.4181,-6.4176,-6.417,-6.4165,-6.432,-6.4331,-6.4343,-6.4523,0,0,-6.4377,-6.4382,0,0,0,0,0,0,0,0,-6.3878,-6.3899,-6.4074,-6.4076,-6.4077,-6.4185,-6.4175,-6.4337,-6.4183,-6.4141,-6.4169,-6.4163,-6.4283,-6.4297,-6.4338,-6.453,-6.4537,-6.4378,-6.4385,-6.439,-6.4394,0,0,0,0,0,0,0,-6.3867,-6.3892,-6.4145,-6.4077,-6.4078,-6.4063,-6.4079,-6.4205,-6.4241,-6.4144,-6.414,-6.4159,-6.4283,-6.4328,-6.4342,-6.4539,-6.4378,-6.4388,-6.4395,-6.44,-6.4888,-6.4894,0,0,0,0,0,0,-6.3856,-6.3884,-6.414,-6.415,-6.3962,-6.4074,-6.4091,-6.4155,-6.4239,-6.4247,-6.4164,-6.4156,-6.4311,-6.4328,-6.4347,-6.4563,-6.439,-6.4401,-6.4407,-6.4882,-6.4889,-6.4896,0,0,0,0,0,0,-6.3849,-6.388,-6.4134,-6.4016,-6.4047,-6.4086,-6.4158,-6.4161,-6.4206,-6.4254,-6.426,-6.4203,-6.4307,-6.4331,-6.448,-6.4567,-6.4406,-6.4416,-6.4875,-6.4884,-6.4893,-6.4996,0,0,0,0,0,0,-6.3839,-6.3878,-6.3946,-6.4018,-6.4054,-6.4265,-6.4164,-6.4168,-6.4226,-6.4217,-6.4293,-6.43,-6.4305,-6.4463,-6.4491,-6.458,-6.4425,-6.4867,-6.4879,-6.489,-6.4985,-6.5008,-6.5027,0,0,0,0,0,-6.3827,-6.3968,-6.395,-6.3981,-6.414,-6.427,-6.429,-6.4293,-6.4233,-6.4302,-6.4334,-6.4297,-6.4554,-6.4479,-6.451,-6.4603,-6.4861,-6.4875,-6.4889,-6.4975,-6.5003,-6.5027,0,0,0,0,0,0,-6.3904,-6.3977,-6.3958,-6.4127,-6.4193,-6.4259,-6.4346,-6.4323,-6.4406,-6.4394,-6.4394,-6.4412,-6.4566,-6.46,-6.4515,-6.4783,-6.4699,-6.4719,-6.4754,-6.4781,-6.4801,-6.4788,-6.4435,0,0,0,0,0,-6.3941,-6.4041,-6.41,-6.4243,-6.4277,-6.4307,-6.4363,-6.4361,-6.4428,-6.4455,-6.4498,-6.4565,-6.466,-6.4723,-6.4814,-6.4992,-6.5006,-6.5071,-6.5092,-6.511,-6.5126,-6.5222,-6.5251,-6.4941,-6.4941,-6.4941,0,0,-6.4018,-6.407,-6.4133,-6.426,-6.431,-6.4413,-6.433,-6.4442,-6.4518,-6.4472,-6.4615,-6.4649,-6.4724,-6.4888,-6.4963,-6.4922,-6.5216,-6.5127,-6.514,-6.5148,-6.5239,-6.5269,-6.5295,-6.4951,-6.4949,-6.4947,0,0,-6.4209,-6.426,-6.4384,-6.4438,-6.4517,-6.4536,-6.4566,-6.4637,-6.4658,-6.4803,-6.4771,-6.4862,-6.5027,-6.5082,-6.5131,-6.5348,-6.5317,-6.5378,-6.5486,-6.558,-6.5605,-6.5626,-6.5702,-6.5729,-6.5396,-6.5396,-6.5396,0,-6.4293,-6.4447,-6.4451,-6.4567,-6.4623,-6.459,-6.4716,-6.4768,-6.4872,-6.4912,-6.4865,-6.5073,-6.5121,-6.5297,-6.5351,-6.5393,-6.5427,-6.5367,-6.5601,-6.5623,-6.5643,-6.5715,-6.5744,-6.5402,-6.5402,-6.5401,-6.54,0,-6.4547,-6.4654,-6.4746,-6.4848,-6.4916,-6.5036,-6.5059,-6.5127,-6.5121,-6.5145,-6.5293,-6.5351,-6.5452,-6.5495,-6.5489,-6.5672,-6.5643,-6.56,-6.5514,-6.5679,-6.5747,-6.5774,-6.5412,-6.541,-6.5408,-6.5406,0,0,-6.4785,-6.4892,-6.4925,-6.4972,-6.5058,-6.5141,-6.5261,-6.5362,-6.542,-6.5495,-6.5594,-6.5737,-6.5698,-6.5754,-6.5755,-6.5838,-6.6004,-6.5784,-6.5785,-6.582,-6.6208,-6.6237,-6.6269,-6.5987,-6.5992,-6.5996,-6.6201,0,-6.4981,-6.519,-6.52,-6.539,-6.5489,-6.5461,-6.5566,-6.563,-6.5658,-6.5746,-6.5776,-6.5876,-6.5818,-6.5852,-6.5933,-6.5967,-6.6082,-6.5953,-6.6077,-6.6082,-6.6055,-6.6305,-6.6336,-6.6526,-6.6227,-6.6232,-6.6235,0,-6.5235,-6.5319,-6.552,-6.5594,-6.5636,-6.5729,-6.5823,-6.5909,-6.5982,-6.5996,-6.6062,-6.6051,-6.6174,-6.6089,-6.6257,-6.617,-6.6222,-6.6247,-6.6255,-6.6263,-6.6165,-6.6317,-6.6587,-6.6614,-6.6277,-6.6274,-6.6271,0,-6.5386,-6.555,-6.5691,-6.5732,-6.5822,-6.5889,-6.5929,-6.5998,-6.6059,-6.6142,-6.6181,-6.6278,-6.633,-6.6405,-6.6421,-6.6358,-6.659,-6.6506,-6.6604,-6.6603,-6.665,-6.6646,-6.6928,-6.6691,-6.669,-6.669,-6.6689,0,-6.5601,-6.5724,-6.576,-6.5846,-6.5984,-6.5995,-6.6131,-6.6167,-6.6229,-6.6322,-6.6306,-6.6393,-6.6411,-6.6503,-6.6517,-6.6654,-6.6679,-6.6693,-6.6694,-6.6692,-6.669,-6.6723,-6.6709,-6.6697,-6.6695,-6.6694,-6.6693,0,-6.579,-6.5819,-6.5971,-6.6046,-6.6067,-6.6165,-6.6229,-6.6312,-6.634,-6.6458,-6.6486,-6.6529,-6.6636,-6.6661,-6.6789,-6.6799,-6.696,-6.6951,-6.6935,-6.6933,-6.7029,-6.7018,-6.7339,-6.7381,-6.7119,-6.7122,-6.7124,0,-6.5923,-6.6017,-6.6103,-6.6165,-6.6209,-6.6308,-6.6371,-6.6387,-6.6453,-6.6546,-6.6618,-6.6724,-6.6809,-6.6983,-6.7024,-6.7123,-6.7113,-6.7219,-6.7127,-6.7123,-6.7111,-6.7104,-6.7113,-6.7235,-6.7238,-6.724,-6.7242,0,-6.6155,-6.6166,-6.6257,-6.6355,-6.643,-6.6507,-6.6581,-6.6633,-6.6659,-6.6735,-6.6845,-6.6911,-6.7043,-6.7148,-6.7248,-6.7289,-6.727,-6.7272,-6.7299,-6.7295,-6.7281,-6.7288,-6.6979,-6.7263,-6.7261,-6.7259,-6.7258,-6.7257,-6.6318,-6.6401,-6.6474,-6.6577,-6.6635,-6.6705,-6.6787,-6.6826,-6.6919,-6.7027,-6.7032,-6.7152,-6.7226,-6.7357,-6.7406,-6.75,-6.7467,-6.7507,-6.7517,-6.7525,-6.7533,-6.727,-6.7518,-6.7518,-6.7517,-6.7517,-6.7517,0,-6.6547,-6.6594,-6.6689,-6.6793,-6.6875,-6.6853,-6.6934,-6.7003,-6.7109,-6.718,-6.7265,-6.7393,-6.7496,-6.7548,-6.765,-6.7715,-6.7709,-6.7741,-6.7734,-6.7744,-6.7557,-6.7522,-6.7745,-6.7744,-6.7744,-6.7744,-6.7744,-6.7744,-6.6675,-6.6814,-6.6834,-6.7002,-6.7048,-6.7166,-6.7214,-6.7279,-6.7335,-6.7479,-6.7565,-6.7599,-6.7663,-6.777,-6.7864,-6.7877,-6.7913,-6.795,-6.7958,-6.7781,-6.7757,-6.7735,-6.7702,-6.7958,-6.7959,-6.8136,-6.8138,-6.8139]},{"header":{"parameterUnit":"m.s-1","parameterCategory":1,"la1":30.2991,"la2":30.254,"lo1":-89.0895,"lo2":-89.0444,"dy":0.0017,"dx":0.0017,"nx":28,"ny":28,"refTime":"2023-10-24T09:00:00:Z","depth":0,"parameterNumber":3,"parameterNumberName":"V-component_of_WINDS"},"data":[0,0,0,0,0,0,0,0,0,0,0,0,0,0,0,0,0,0,0,0,0,0,0,0,0,0,0,0,0,0,0,0,0,0,0,0,0,0,0,0,0,0,0,0,0,0,0,0,0,0,0,0,0,0,0,0,0,0,3.2553,3.2555,0,3.2677,3.2679,3.268,3.2663,3.266,3.2658,3.2656,3.278,3.2785,3.279,0,0,0,0,0,0,0,0,0,0,0,0,0,3.23,3.2305,3.2553,3.2555,3.2556,3.2677,3.2679,3.2681,3.2663,3.266,3.2658,3.2655,3.2778,3.2785,3.2791,0,0,0,0,0,0,0,0,0,0,0,0,0,3.2416,3.2307,3.2553,3.2562,3.2564,3.2677,3.2679,3.2681,3.2663,3.266,3.2657,3.2654,3.2776,3.2784,3.2792,3.2902,0,0,3.2816,3.2819,0,0,0,0,0,0,0,0,3.2409,3.2425,3.2559,3.2562,3.2564,3.2651,3.2635,3.2755,3.2664,3.2626,3.2656,3.2653,3.274,3.275,3.278,3.2908,3.2913,3.2816,3.2821,3.2824,3.2827,0,0,0,0,0,0,0,3.2401,3.242,3.2602,3.2561,3.2564,3.256,3.2573,3.2658,3.2698,3.2629,3.2628,3.2643,3.274,3.2773,3.2783,3.2915,3.2816,3.2823,3.2828,3.2831,3.3142,3.3145,0,0,0,0,0,0,3.2391,3.2413,3.2598,3.2606,3.2478,3.2567,3.2582,3.2627,3.2697,3.2705,3.2645,3.2642,3.2761,3.2774,3.2787,3.2922,3.2824,3.2832,3.2836,3.3138,3.3143,3.3147,0,0,0,0,0,0,3.2386,3.2408,3.2593,3.251,3.2533,3.2575,3.2625,3.2631,3.2663,3.271,3.2717,3.2671,3.2759,3.2776,3.2874,3.2926,3.2835,3.2842,3.3134,3.314,3.3145,3.3193,0,0,0,0,0,0,3.2379,3.2406,3.2448,3.2511,3.2537,3.2679,3.2629,3.2635,3.2677,3.2673,3.2736,3.2743,3.2758,3.2863,3.2882,3.2935,3.2848,3.313,3.3137,3.3143,3.3187,3.3199,3.321,0,0,0,0,0,3.237,3.2455,3.245,3.2473,3.2591,3.2682,3.2697,3.2713,3.2681,3.2724,3.2755,3.2741,3.2918,3.2873,3.2895,3.2951,3.3126,3.3135,3.3142,3.3181,3.3197,3.3209,0,0,0,0,0,0,3.2396,3.2464,3.2459,3.2567,3.2619,3.2679,3.2733,3.2728,3.2789,3.2782,3.2799,3.2813,3.2913,3.2942,3.2891,3.3063,3.3018,3.3031,3.304,3.3055,3.3066,3.3056,3.2855,0,0,0,0,0,3.2415,3.2483,3.2539,3.2629,3.2656,3.269,3.273,3.2738,3.2792,3.2813,3.2851,3.2903,3.2971,3.3014,3.3079,3.3192,3.3205,3.3241,3.3253,3.3262,3.3272,3.3336,3.3353,3.3173,3.3173,3.3173,0,0,3.2453,3.2499,3.2541,3.2636,3.2677,3.2747,3.2708,3.2784,3.2837,3.2824,3.292,3.295,3.3009,3.3116,3.3165,3.3143,3.3326,3.3272,3.3279,3.3285,3.3346,3.3363,3.3378,3.3178,3.3177,3.3177,0,0,3.256,3.2601,3.2682,3.2725,3.2789,3.2812,3.2832,3.2893,3.2913,3.301,3.3003,3.3066,3.3181,3.3224,3.3261,3.3389,3.3379,3.341,3.3469,3.3531,3.3545,3.3558,3.3604,3.362,3.342,3.342,3.342,0,3.26,3.2706,3.2724,3.2802,3.2845,3.284,3.2922,3.2962,3.3043,3.3073,3.3048,3.3195,3.3234,3.3352,3.3384,3.3414,3.3437,3.3402,3.3542,3.3555,3.3567,3.3611,3.3628,3.3424,3.3423,3.3423,3.3423,0,3.2753,3.2827,3.2885,3.2966,3.3015,3.3094,3.3124,3.3172,3.3177,3.3203,3.3303,3.3351,3.3426,3.3455,3.3459,3.3574,3.3559,3.3538,3.3493,3.3587,3.3629,3.3646,3.3428,3.3427,3.3426,3.3425,0,0,3.2876,3.2969,3.2989,3.3027,3.3099,3.3157,3.3237,3.3312,3.3353,3.341,3.3478,3.3578,3.3561,3.3603,3.3613,3.3667,3.3767,3.364,3.3642,3.3662,3.3897,3.3912,3.3931,3.3762,3.3765,3.3767,3.3892,0,3.299,3.3132,3.3153,3.3279,3.3348,3.3347,3.3417,3.3469,3.3496,3.3559,3.3589,3.366,3.3631,3.3656,3.371,3.3743,3.3814,3.3734,3.3825,3.3828,3.3809,3.3953,3.3968,3.4083,3.3909,3.3911,3.3913,0,3.314,3.3204,3.3338,3.3403,3.3433,3.3496,3.3568,3.3628,3.3688,3.3704,3.3753,3.3757,3.3841,3.3794,3.391,3.3856,3.3894,3.3916,3.3921,3.3929,3.3875,3.3964,3.412,3.4137,3.3939,3.3937,3.3935,0,3.3218,3.3337,3.3433,3.3465,3.3543,3.3588,3.3622,3.3679,3.3724,3.3787,3.3816,3.3888,3.3927,3.3982,3.4006,3.397,3.4121,3.4076,3.4137,3.4137,3.4168,3.4165,3.4331,3.4194,3.4193,3.4193,3.4193,0,3.3342,3.3424,3.3469,3.3528,3.362,3.3643,3.3734,3.3767,3.3818,3.3884,3.3886,3.3948,3.3976,3.4042,3.4061,3.4155,3.4172,3.4188,3.4192,3.4187,3.4185,3.4212,3.4204,3.4198,3.4197,3.4196,3.4195,0,3.3442,3.3476,3.3581,3.3648,3.3666,3.3732,3.3789,3.3846,3.3874,3.3957,3.3978,3.4022,3.41,3.413,3.4225,3.4238,3.4346,3.4344,3.4327,3.4328,3.4387,3.4381,3.4576,3.4603,3.4447,3.4449,3.445,0,3.3519,3.3582,3.3657,3.3702,3.3739,3.3811,3.3858,3.3884,3.3933,3.4007,3.4056,3.4135,3.4198,3.4324,3.4363,3.4437,3.4436,3.4499,3.4446,3.4441,3.4437,3.4433,3.444,3.4508,3.451,3.4511,3.4512,0,3.3652,3.3666,3.3734,3.3809,3.3866,3.3926,3.3984,3.402,3.4056,3.411,3.4191,3.4241,3.434,3.4418,3.4494,3.4529,3.4527,3.4529,3.4547,3.4542,3.453,3.4538,3.4353,3.4524,3.4523,3.4522,3.4521,3.4521,3.3743,3.38,3.3863,3.3939,3.3986,3.4042,3.41,3.4137,3.4205,3.4288,3.43,3.4387,3.4447,3.455,3.4589,3.4657,3.464,3.4666,3.4673,3.4679,3.4683,3.452,3.4671,3.4671,3.467,3.467,3.467,0,3.3876,3.3917,3.3987,3.407,3.4131,3.4126,3.4191,3.4242,3.4319,3.4376,3.444,3.4535,3.4611,3.4659,3.4736,3.4782,3.4783,3.4802,3.4798,3.4807,3.4693,3.467,3.48,3.48,3.48,3.48,3.48,3.4799,3.3952,3.4049,3.4072,3.4193,3.4234,3.432,3.4358,3.441,3.4456,3.4561,3.4626,3.4657,3.4711,3.4793,3.4864,3.4876,3.4904,3.4924,3.4934,3.4828,3.4814,3.4801,3.478,3.493,3.493,3.5042,3.5043,3.5044]}]]